Vertical_Velocity
-0 -2 -1 -2 -1 -4 -1 -2 -2 -2 -5 -0 -1 -2 -5 1 1 0 2 1 2 3 -2 2 5 2 -1 6 7 4 -1 2 2 -9 -11 -3 -0 -6 -6 4 1 -0 -2
-1 -0 -2 -4 -5 0 -3 -5 -3 -8 -3 -5 -0 -2 -1 0 -1 6 1 -2 7 2 3 -3 3 9 6 11 6 6 1 -3 6 -3 -4 -9 2 -2 2 4 2 4 1
-6 -4 -4 -2 -1 -2 -1 -3 0 -1 -3 -6 -1 -2 -2 -1 -3 -3 -0 3 4 -3 5 13 3 -2 2 7 2 6 4 -18 4 -2 1 -5 -9 13 9 -17 4 4 -1
-2 -1 -1 -2 -2 -2 -1 -2 -4 -1 -0 -6 -8 -4 -2 -3 -3 -1 1 2 -4 0 1 -9 -1 26 7 6 -0 10 0 3 0 5 6 10 8 -3 -9 -6 -5 6 4
-3 -3 -3 -3 -4 -1 -2 -2 -3 -4 -7 -2 -3 -2 0 -6 -3 -4 -4 2 0 1 -3 -2 -1 72 29 17 9 13 9 2 3 -2 4 -1 -1 1 5 6 6 -5 -3
-1 -2 -1 -3 -2 -2 0 -2 -4 -3 -6 -6 -4 -3 -1 2 -6 -9 -2 -0 6 7 8 3 1 -43 27 14 -2 10 9 10 2 2 3 -0 2 3 9 15 -0 -10 6
-2 -3 -4 -2 -3 -2 1 -1 -4 -3 -7 -4 -2 0 -0 1 2 -2 26 7 7 -1 -2 5 -11 -3 40 23 20 1 10 -1 1 0 -3 -2 1 1 3 -1 1 -10 2
-3 -3 -3 -3 -1 0 0 -3 -6 -6 -6 -4 -6 -1 6 3 7 -3 20 2 6 -0 -7 -19 -14 10 11 10 -1 -2 3 -1 -1 3 -4 -0 1 3 1 2 -1 -9 -5
-1 -4 -4 -4 -1 -2 -2 -2 -5 -5 -3 2 -7 2 -4 1 0 16 11 12 4 1 -9 9 12 11 -16 -3 1 -3 -2 1 -4 3 -2 -2 2 4 -1 -1 -3 10 -9
-1 -3 -2 -0 -2 -3 -3 -6 -4 -5 -3 -5 -1 0 3 5 2 0 2 4 5 -2 -5 5 7 3 5 4 4 2 1 2 -8 -5 -1 -7 9 -1 1 -3 -2 -4 10
-1 -1 -3 -4 -2 -4 -5 -5 -5 -4 -4 -4 -6 -5 -3 -3 -6 -3 1 3 1 -5 -3 -3 1 9 9 7 -0 2 4 1 -5 5 -9 -2 -1 -7 6 2 0 2 1
-1 -2 -3 -3 -2 -3 -5 -5 -5 -3 -1 -0 -0 -1 -2 -4 -4 -1 -7 -6 -2 -4 -3 -0 -0 -2 -1 -0 3 -2 -3 -5 -0 -0 2 2 2 0 -2 10 1 5 -2
-5 -5 -4 -3 -4 -5 -4 -4 -4 -4 -5 -6 -4 -1 1 2 1 -2 -5 -2 -2 -3 -1 0 -0 -2 -7 -5 -0 -2 2 -0 -3 -1 -4 -3 -0 -3 -4 -2 -0 7 7
-2 -1 0 0 2 1 -3 -2 -1 -1 -1 -0 1 1 -0 -1 -0 1 1 1 0 1 1 1 -0 1 -7 -0 -1 -2 -2 -4 -3 -1 -0 0 -2 -1 -0 1 -0 -1 -2
1 5 1 1 2 2 2 -1 -1 0 2 2 1 1 1 2 1 -0 0 0 -0 0 -0 -0 1 5 6 6 4 -0 1 3 4 1 -0 -1 -2 -3 0 1 3 -1 -0
3 4 1 0 -3 -3 -1 -1 -0 -0 -1 -0 2 2 1 -0 0 -0 1 2 1 -0 -1 -2 -2 -3 -4 -4 -3 0 1 -2 -2 -2 -3 -3 -2 -1 -0 1 -1 0 -2
-1 -3 -1 -1 -0 -2 -2 1 1 1 0 -2 -2 -2 -2 -2 -0 1 1 -0 -0 1 1 1 3 2 2 2 2 2 2 2 1 2 3 3 1 -1 -1 -1 -0 -1 -2
-5 -4 -1 -0 -0 0 0 0 0 -0 0 1 -0 -1 -1 -0 0 -2 -4 -3 -0 1 2 2 1 -0 -1 -0 -0 -0 -2 -2 -3 -2 -2 -2 0 -1 -1 -0 1 1 1
1 1 -0 0 1 -0 -0 -1 -3 -2 -1 -1 -1 -1 0 1 1 -0 -1 -0 -1 -3 -4 -2 -2 -1 -3 -3 -2 -1 0 -1 -2 0 2 1 1 1 0 -0 2 2 2
-3 -4 -4 -4 -1 1 1 -0 0 1 -0 -1 0 -0 -0 -0 0 1 1 1 -0 0 1 -1 -1 -1 1 -0 0 -0 -2 -0 3 6 4 2 -1 -2 -1 -0 -3 -5 -1
1 0 -0 -0 -0 0 1 0 1 2 1 1 1 -0 -0 -1 -1 -2 -2 -1 -1 0 -1 0 -1 -0 2 -2 -1 -1 -2 -5 -5 -5 -4 -2 -1 -3 -3 -4 -5 -4 -5
1 1 1 2 3 2 -2 -1 0 0 0 0 1 1 -1 -0 1 2 1 -1 -2 -1 -1 1 1 -4 -3 -4 -2 -1 -3 -3 -5 -3 -2 -2 -1 -0 0 0 0 -1 -1
-1 1 2 3 1 0 1 1 1 1 1 0 -0 -0 -1 -1 1 0 -1 -0 -0 1 -1 -2 0 2 1 1 -2 -1 -2 -1 -3 -3 -4 -1 -0 -1 0 0 0 2 1
3 1 -0 -0 -2 1 1 2 0 -1 0 1 -0 -1 1 1 -2 -1 -2 -2 -0 -0 -2 -3 -2 -1 0 1 0 0 2 5 4 1 1 -0 -3 -3 -3 -3 0 1 0
2 -1 0 -1 1 -0 1 2 2 -1 -2 -3 -1 1 1 0 1 -1 -1 -1 -3 -2 -1 -1 -2 -2 3 2 -1 -3 -2 -1 -2 -7 -1 0 1 0 1 -0 -2 -3 0
-4 -3 -2 0 1 2 -0 -0 0 0 -2 -3 -3 -2 -1 -1 -0 1 1 -5 0 1 -2 -3 -3 1 -2 -1 -1 -1 -2 -2 -5 -3 -3 -2 -1 -2 -0 -0 1 3 0
Height
3109 3106 3101 3095 3091 3088 3086 3084 3081 3077 3073 3070 3068 3065 3063 3063 3063 3063 3062 3065 3068 3072 3075 3079 3082 3085 3088 3089 3091 3092 3093 3094 3094 3093 3096 3095 3095 3095 3096 3100 3103 3103 3105
3104 3100 3095 3090 3085 3084 3082 3079 3075 3070 3065 3061 3058 3054 3051 3051 3049 3050 3051 3053 3056 3059 3064 3068 3073 3076 3079 3081 3082 3083 3085 3088 3088 3088 3088 3088 3087 3088 3091 3092 3096 3097 3098
3097 3094 3089 3084 3082 3081 3078 3075 3070 3065 3060 3055 3050 3045 3042 3041 3040 3039 3040 3042 3043 3047 3052 3059 3063 3065 3069 3071 3073 3076 3076 3080 3081 3080 3081 3079 3080 3082 3081 3083 3086 3089 3089
3093 3088 3084 3080 3078 3077 3074 3070 3065 3060 3055 3049 3045 3040 3038 3035 3033 3032 3032 3033 3035 3039 3041 3045 3051 3052 3057 3059 3064 3065 3067 3068 3071 3072 3073 3074 3073 3073 3074 3075 3077 3079 3080
3089 3084 3080 3075 3074 3072 3069 3064 3059 3054 3051 3044 3038 3036 3034 3031 3029 3027 3026 3026 3028 3031 3035 3037 3038 3036 3040 3045 3049 3055 3058 3060 3062 3064 3066 3067 3066 3064 3064 3066 3067 3068 3071
3086 3081 3076 3070 3068 3066 3063 3060 3055 3050 3048 3042 3038 3034 3031 3028 3026 3023 3022 3023 3025 3026 3031 3031 3032 3028 3024 3033 3040 3042 3048 3052 3054 3055 3056 3059 3060 3059 3056 3054 3057 3057 3062
3083 3078 3072 3066 3063 3063 3060 3056 3052 3049 3046 3042 3038 3033 3029 3025 3022 3020 3015 3020 3022 3024 3026 3026 3027 3021 3018 3023 3031 3036 3041 3045 3047 3047 3049 3050 3051 3050 3049 3049 3049 3046 3050
3080 3075 3070 3065 3061 3059 3056 3052 3049 3046 3044 3040 3037 3033 3029 3026 3022 3019 3018 3018 3020 3020 3019 3019 3021 3016 3017 3015 3026 3032 3034 3036 3038 3037 3038 3040 3041 3041 3040 3040 3039 3037 3037
3077 3073 3068 3064 3060 3056 3053 3050 3047 3045 3044 3041 3038 3034 3031 3027 3024 3019 3018 3017 3018 3019 3019 3016 3016 3015 3016 3022 3026 3027 3028 3028 3027 3027 3028 3030 3031 3031 3030 3031 3030 3028 3027
3074 3069 3065 3062 3059 3055 3051 3048 3045 3043 3042 3040 3037 3034 3031 3026 3023 3021 3019 3018 3016 3017 3016 3013 3013 3015 3016 3017 3018 3019 3018 3017 3018 3019 3019 3020 3020 3020 3020 3020 3020 3020 3016
3071 3067 3064 3061 3057 3054 3050 3046 3044 3042 3040 3038 3036 3032 3028 3026 3022 3020 3017 3016 3015 3014 3012 3011 3011 3011 3010 3011 3011 3011 3010 3011 3012 3011 3012 3011 3012 3010 3009 3011 3010 3007 3007
3067 3065 3061 3058 3055 3052 3048 3046 3044 3043 3040 3037 3034 3031 3029 3026 3023 3020 3019 3017 3013 3011 3009 3008 3007 3007 3005 3005 3005 3005 3005 3005 3004 3003 3001 3000 3000 2999 2999 2997 2998 2996 2994
3063 3061 3058 3055 3051 3048 3046 3044 3042 3040 3038 3036 3033 3031 3028 3025 3022 3020 3018 3014 3011 3010 3008 3006 3004 3003 3001 3001 2999 2998 2997 2996 2995 2994 2992 2990 2990 2990 2987 2986 2985 2983 2981
3057 3056 3053 3051 3049 3046 3043 3041 3040 3039 3037 3035 3032 3030 3027 3024 3021 3019 3016 3013 3011 3008 3005 3002 2999 2998 2996 2995 2993 2991 2989 2988 2986 2984 2983 2981 2980 2978 2977 2976 2973 2973 2973
3051 3051 3049 3047 3045 3043 3041 3038 3036 3034 3032 3031 3028 3025 3022 3019 3016 3013 3010 3008 3005 3002 3000 2997 2995 2992 2990 2988 2985 2983 2980 2978 2976 2974 2972 2971 2969 2966 2965 2963 2961 2961 2960
3046 3046 3044 3041 3039 3038 3037 3035 3033 3030 3028 3025 3023 3020 3017 3014 3010 3007 3004 3001 2997 2994 2992 2989 2986 2983 2981 2979 2977 2975 2973 2971 2969 2967 2964 2961 2958 2955 2952 2951 2950 2948 2947
3041 3040 3039 3037 3035 3033 3032 3030 3028 3026 3024 3021 3019 3016 3013 3009 3006 3002 2999 2995 2992 2988 2985 2983 2980 2977 2975 2972 2970 2967 2965 2962 2960 2957 2955 2952 2949 2946 2943 2942 2941 2939 2937
3032 3031 3031 3031 3029 3028 3026 3024 3022 3021 3019 3016 3014 3011 3009 3006 3002 2999 2995 2991 2987 2984 2981 2977 2974 2971 2968 2965 2962 2959 2956 2953 2950 2948 2945 2942 2940 2936 2933 2932 2930 2929 2927
3028 3026 3025 3024 3023 3022 3021 3018 3016 3014 3012 3010 3008 3006 3003 2999 2995 2992 2988 2985 2982 2979 2975 2972 2969 2965 2962 2958 2955 2951 2948 2945 2942 2939 2935 2932 2930 2926 2923 2920 2919 2918 2917
3021 3020 3019 3018 3018 3017 3015 3012 3010 3008 3006 3003 3001 2998 2995 2992 2989 2985 2982 2979 2976 2973 2969 2966 2962 2959 2955 2950 2946 2942 2938 2935 2933 2932 2928 2924 2919 2916 2912 2907 2902 2901 2902
3014 3013 3013 3012 3011 3010 3008 3006 3005 3003 3000 2997 2995 2992 2989 2986 2983 2980 2976 2973 2969 2965 2962 2958 2954 2950 2945 2940 2936 2931 2927 2924 2921 2918 2916 2912 2908 2904 2901 2898 2894 2891 2887
3008 3006 3005 3005 3004 3002 3001 3000 2998 2997 2994 2991 2989 2986 2983 2979 2976 2972 2969 2965 2962 2958 2954 2950 2946 2941 2936 2932 2929 2925 2921 2917 2913 2910 2906 2902 2899 2894 2890 2887 2883 2880 2876
3003 3001 3000 2999 2997 2996 2995 2994 2992 2990 2988 2985 2983 2980 2976 2973 2969 2966 2962 2958 2953 2950 2946 2943 2939 2935 2930 2926 2922 2919 2915 2910 2905 2900 2896 2892 2887 2883 2880 2877 2874 2870 2867
2998 2995 2995 2993 2992 2991 2989 2988 2986 2984 2982 2980 2977 2975 2971 2967 2964 2960 2956 2952 2947 2943 2939 2935 2931 2928 2924 2919 2915 2911 2907 2902 2897 2891 2886 2881 2877 2874 2870 2867 2864 2860 2856
2991 2989 2989 2988 2987 2985 2984 2982 2980 2978 2976 2974 2972 2969 2965 2961 2958 2954 2950 2946 2940 2936 2931 2927 2923 2919 2916 2911 2906 2901 2896 2891 2886 2879 2875 2870 2866 2863 2860 2857 2853 2851 2848
2983 2982 2983 2983 2981 2979 2978 2976 2974 2972 2971 2969 2966 2963 2959 2955 2951 2947 2944 2938 2934 2930 2925 2919 2915 2911 2907 2903 2898 2893 2889 2884 2878 2872 2866 2861 2857 2853 2850 2846 2842 2839 2836